Regional Weather Roundup
Issued by NWS

Home | Current Version | Previous Version | Graphics & Text | Print | Product List | Glossary On
Versions: 1 2 3 4 5 6 7 8 9 10 11 12 13 14 15 16 17 18 19 20 21 22 23 24 25 26 27 28 29 30 31 32 33 34 35 36 37 38 39 40 41 42 43 44 45 46 47 48 49 50
000
ASUS43 KIND 121959
RWRIN

WEATHER ROUNDUP FOR INDIANA
NATIONAL WEATHER SERVICE INDIANAPOLIS IN
400 PM EDT SAT JUL 12 2014

NOTE: "FAIR" INDICATES FEW OR NO CLOUDS BELOW 12,000 FEET WITH NO
SIGNIFICANT WEATHER AND/OR OBSTRUCTIONS TO VISIBILITY.

* - STATION DOES NOT REPORT WEATHER SUCH AS PRECIPITATION OR FOG.

+ - STATION NOT QUALITY CONTROLLED BY THE NATIONAL WEATHER SERVICE.
    USE DATA WITH CAUTION...ESPECIALLY DEWPOINT AND RELATIVE
    HUMIDITY OBSERVATIONS.

INZ001>003-010>013-019-020-122100-
NORTHWEST INDIANA

CITY           SKY/WX    TMP DP  RH WIND       PRES   REMARKS
GARY /AIRPORT/ CLOUDY    77  70  78 SW14G28   30.02S
RENSSELAER +   CLOUDY    77  72  83 S6        30.04S
VALPARAISO     CLOUDY    76  70  82 SW16      30.02F

$$

LMZ046-743>745-122100-
SOUTHERN LAKE MICHIGAN

STATION/POSITION TIME  TEMP WIND        PRES
                       AIR  DIR/SP/G
                 (UTC) (F)  (DEG/KT/KT) (MB)
MICHIGAN CITY    1900   72  180/ 17/ 21   N/A

$$

INZ004-005-014>016-021>024-122100-
NORTH CENTRAL INDIANA

CITY           SKY/WX    TMP DP  RH WIND       PRES   REMARKS
ELKHART        CLOUDY    73  70  88 SW8       30.04S
GOSHEN         CLOUDY    75  70  84 S9        30.02F
SOUTH BEND     CLOUDY    74  69  85 SW9       30.04R

$$

INZ006>009-017-018-025>027-122100-
NORTHEAST INDIANA

CITY           SKY/WX    TMP DP  RH WIND       PRES   REMARKS
ANGOLA *+      MOSUNNY   77  70  78 SW12      30.05F
FORT WAYNE     LGT RAIN  78  68  71 S12       30.06F

$$

INZ028-029-035-036-043>045-051>053-122100-
WEST CENTRAL INDIANA

CITY           SKY/WX    TMP DP  RH WIND       PRES   REMARKS
GREENCASTLE +  CLOUDY    73  70  88 S7        30.12F
LAFAYETTE      CLOUDY    76  71  85 S13G20    30.04F
TERRE HAUTE    CLOUDY    77  71  82 S9        30.10F

$$

INZ030>032-037>040-046>048-054>057-064-065-122100-
CENTRAL INDIANA

CITY           SKY/WX    TMP DP  RH WIND       PRES   REMARKS
ANDERSON       SUNNY     77  66  69 S12       30.09F
COLUMBUS       CLOUDY    77  72  83 SW6       30.13F
INDIANAPOLIS   CLOUDY    74  69  85 S12       30.09F
-EAGLE CREEK   CLOUDY    75  69  81 S8        30.09F
KOKOMO *+      CLOUDY    73  68  83 S12       30.06R
MT COMFORT *+  CLOUDY    79  75  89 S12       30.10F
SHELBYVILLE    CLOUDY    80  69  69 S15       30.11F

$$

INZ033-034-041-042-049-050-058-059-122100-
EAST CENTRAL INDIANA

CITY           SKY/WX    TMP DP  RH WIND       PRES   REMARKS
MUNCIE         CLOUDY    79  66  64 S10       30.06F

$$

INZ060-061-067>069-081>083-085>088-122100-
SOUTHWEST INDIANA

CITY           SKY/WX    TMP DP  RH WIND       PRES   REMARKS
EVANSVILLE     CLOUDY    80  72  76 S10       30.13F
HUNTINGBURG *+ CLOUDY    82  70  65 SW8       30.14F

$$

INZ062-063-066-070>080-084-089>092-122100-
SOUTH CENTRAL AND SOUTHEAST INDIANA

CITY           SKY/WX    TMP DP  RH WIND       PRES   REMARKS
BLOOMINGTON    CLOUDY    77  71  82 S8        30.14S
SEYMOUR +      LGT RAIN  77  54  44 SW7       30.13

$$




USA.gov is the U.S. government's official web portal to all federal, state and local government web resources and services.